COSMOS 2251 DEB, 35443

Orbit data source: Space-Track

COSMOS 2251 DEB, 35443 is space debris in LEO originally from a launch on Wed, 16 Jun 1993 UTC launched from the Plesetsk Missile And Space Complex (PKMTR). The debris from Iridium 33, an American commercial communications satellite, has been tracked extensively since its accidental collision with the defunct Russian satellite Cosmos 2251 in 2009. This event, occurring at high speed in low Earth orbit (LEO), generated thousands of pieces of space debris, significantly increasing the risk of further collisions. The Iridium 33 debris cloud has impacted space traffic management and orbital debris mitigation strategies, making it a subject of ongoing study in space situational awareness.

Loading next visibility...
Identifier
35443, 1993-036AKM
Orbit
LEO
Country
Flag of CISCIS
Related business
Manufacturer
Unknown
Mission
Spacecraft
Bus & Motor
Unknown
Mass
Unknown
Launch date (UTC)
1993-06-16 (32 years ago)
Launch vehicle
Unknown
Launch site
Plesetsk Missile And Space Complex (PKMTR)
Object type
Payload
Rocket body
Debris
Shape & HBR
Unknown shape, 0.1 m
Radar Cross Section
Small (<0.1 m²)

Expand to show TLE details & history
Last TLE update: 3 days ago

TLE from 3 days ago
0 COSMOS 2251 DEB
1 35443U 93036AKM 25301.76112155  .00061591  00000-0  57953-2 0  9992
2 35443  73.9881  62.4354 0086445 215.9591 143.5757 14.90726932862067
Epoch: 2025-10-28T18:16Z
TLE epoch observation values (Epoch: 2025-10-28T18:16:00.901Z)
Latitude
-0.00001°
Longitude
111.08767°
Altitude
647.04 km
Speed
7.508 km/s
True Right ascension
04h 09m 44s
True Declination
0° 00' 00"
Sunlit
Object was in full shadow at epoch
Visualization orbit readout
Latitude
Unknown
Longitude
Unknown
Altitude
Unknown
Speed
Unknown
Apparent Right ascension
Unknown
Apparent Declination
Unknown
Sunlit
N/A
Visualization observer readout
Local Sidereal Time
17:18:49
Azimuth
Unknown
Elevation
Unknown
Doppler factor
Unknown
Orbital elements
Apogee altitude
653.499 km
Perigee altitude
532.971 km
Semi-major axis
6,971.372 km
Eccentricity
0.00864
Inclination
73.9881°
RAAN
62.4354°
Arg. of periapsis
215.9591°
True anomaly
144.15879°
Mean anomaly
143.5757°
Eccentric anomaly
143.86775°
Mean motion
3.72877 °/min
Orbital period
96.55 mins
BSTAR
0.0057953
Loading maneuver chart data...
Computing Atmospheric mass density...

Documentation

Showing up to 5 results
|